• In Belarus
  • List of Countries
  • For 7 days
  • Water Temperature
  • Satellite Maps
  • Weather Map
  • Weather Widgets
  • user-avatar
    Login

    Hourly Weather Kalat

    Today, 24 May, Friday

    Time Temperature Precipitation Wind Pressure Humidity
    00:00 +1°C° 1 mm 2 mps 475 mmHg 84%
    01:00 +1°C° 1 mm 2 mps 475 mmHg 85%
    02:00 0°C° 1 mm 3 mps 475 mmHg 86%
    03:00 -1°C° 0.3 mm 3 mps 474 mmHg 86%
    04:00 -1°C° 0.3 mm 3 mps 474 mmHg 85%
    05:00 -4°C° 0 mm 3 mps 472 mmHg 82%
    06:00 -2°C° 0 mm 3 mps 474 mmHg 80%
    07:00 0°C° 0 mm 3 mps 475 mmHg 77%
    08:00 +1°C° 0 mm 3 mps 476 mmHg 74%
    09:00 +1°C° 0.1 mm 3 mps 476 mmHg 74%
    10:00 +2°C° 0.1 mm 3 mps 476 mmHg 75%
    11:00 +2°C° 0 mm 3 mps 477 mmHg 74%
    12:00 +3°C° 0.3 mm 3 mps 477 mmHg 73%
    13:00 +4°C° 0.3 mm 2 mps 477 mmHg 72%
    14:00 +4°C° 0.3 mm 2 mps 477 mmHg 70%
    15:00 +4°C° 0.3 mm 2 mps 478 mmHg 69%
    16:00 +3°C° 0.3 mm 3 mps 478 mmHg 68%
    17:00 +3°C° 0.3 mm 3 mps 478 mmHg 68%
    18:00 +2°C° 0.2 mm 3 mps 477 mmHg 71%
    19:00 0°C° 0.2 mm 3 mps 477 mmHg 74%
    20:00 -1°C° 0.2 mm 3 mps 476 mmHg 78%
    21:00 -1°C° 0.1 mm 2 mps 476 mmHg 79%
    22:00 -2°C° 0.1 mm 2 mps 475 mmHg 80%
    23:00 -3°C° 0.1 mm 2 mps 475 mmHg 80%

    Tomorrow, 25 May, Saturday

    Time Temperature Precipitation Wind Pressure Humidity
    00:00 -3°C° 0 mm 2 mps 474 mmHg 81%
    01:00 -4°C° 0 mm 2 mps 474 mmHg 82%
    02:00 -4°C° 0 mm 2 mps 473 mmHg 83%
    03:00 -5°C° 0 mm 2 mps 473 mmHg 82%
    04:00 -5°C° 0 mm 2 mps 473 mmHg 82%
    05:00 -6°C° 0 mm 2 mps 473 mmHg 82%
    06:00 -4°C° 0 mm 2 mps 474 mmHg 76%
    07:00 -3°C° 0 mm 2 mps 475 mmHg 70%
    08:00 -2°C° 0 mm 3 mps 476 mmHg 65%
    09:00 -1°C° 0 mm 3 mps 476 mmHg 61%
    10:00 0°C° 0 mm 3 mps 477 mmHg 58%
    11:00 +1°C° 0 mm 3 mps 477 mmHg 54%
    12:00 +2°C° 0 mm 3 mps 477 mmHg 56%
    13:00 +2°C° 0 mm 3 mps 477 mmHg 57%
    14:00 +4°C° 0 mm 2 mps 478 mmHg 58%
    15:00 +3°C° 0.1 mm 3 mps 477 mmHg 59%
    16:00 +3°C° 0.1 mm 3 mps 477 mmHg 60%
    17:00 +2°C° 0.1 mm 3 mps 477 mmHg 61%
    18:00 +1°C° 0.1 mm 3 mps 476 mmHg 65%
    19:00 0°C° 0.1 mm 3 mps 475 mmHg 68%
    20:00 -2°C° 0.1 mm 3 mps 475 mmHg 71%
    21:00 -3°C° 0 mm 2 mps 475 mmHg 73%
    22:00 -3°C° 0 mm 2 mps 474 mmHg 75%
    23:00 -4°C° 0 mm 2 mps 474 mmHg 77%

    Day after tomorrow, 26 May, Sunday

    Time Temperature Precipitation Wind Pressure Humidity
    00:00 -4°C° 0 mm 2 mps 474 mmHg 78%
    01:00 -5°C° 0 mm 2 mps 473 mmHg 78%
    02:00 -5°C° 0 mm 2 mps 473 mmHg 79%
    03:00 -5°C° 0 mm 2 mps 473 mmHg 80%
    04:00 -6°C° 0 mm 2 mps 473 mmHg 80%
    05:00 -6°C° 0 mm 2 mps 472 mmHg 81%
    06:00 -6°C° 0 mm 3 mps 473 mmHg 76%
    07:00 -5°C° 0 mm 3 mps 474 mmHg 72%
    08:00 -4°C° 0 mm 3 mps 474 mmHg 67%
    09:00 -2°C° 0 mm 3 mps 475 mmHg 64%
    10:00 -1°C° 0 mm 3 mps 476 mmHg 60%
    11:00 0°C° 0 mm 3 mps 476 mmHg 56%
    12:00 0°C° 0 mm 3 mps 477 mmHg 56%
    13:00 +1°C° 0 mm 3 mps 477 mmHg 56%
    14:00 +1°C° 0 mm 3 mps 477 mmHg 55%
    15:00 +1°C° 0 mm 3 mps 477 mmHg 55%
    16:00 +1°C° 0 mm 3 mps 477 mmHg 56%
    17:00 +1°C° 0 mm 3 mps 477 mmHg 56%
    18:00 0°C° 0 mm 3 mps 476 mmHg 58%
    19:00 -2°C° 0 mm 3 mps 476 mmHg 61%
    20:00 -3°C° 0 mm 2 mps 475 mmHg 63%
    21:00 -3°C° 0 mm 2 mps 475 mmHg 64%
    22:00 -4°C° 0 mm 2 mps 475 mmHg 64%
    23:00 -2°C° 0 mm 1 mps 475 mmHg 65%

    27 May, Monday

    Time Temperature Precipitation Wind Pressure Humidity
    00:00 -2°C° 0 mm 1 mps 474 mmHg 63%
    01:00 -3°C° 0 mm 1 mps 474 mmHg 61%
    02:00 -3°C° 0 mm 1 mps 474 mmHg 60%
    03:00 -3°C° 0 mm 1 mps 473 mmHg 58%
    04:00 -3°C° 0 mm 1 mps 473 mmHg 57%
    05:00 -4°C° 0 mm 1 mps 473 mmHg 56%
    06:00 -2°C° 0 mm 1 mps 474 mmHg 51%
    07:00 0°C° 0 mm 1 mps 475 mmHg 46%
    08:00 +1°C° 0 mm 1 mps 476 mmHg 41%
    09:00 +2°C° 0 mm 2 mps 477 mmHg 39%
    10:00 +3°C° 0 mm 2 mps 478 mmHg 36%
    11:00 +4°C° 0 mm 3 mps 479 mmHg 33%
    12:00 +4°C° 0 mm 3 mps 479 mmHg 34%
    13:00 +5°C° 0 mm 3 mps 479 mmHg 36%
    14:00 +5°C° 0 mm 3 mps 479 mmHg 37%
    15:00 +5°C° 0 mm 3 mps 479 mmHg 38%
    16:00 +4°C° 0 mm 3 mps 479 mmHg 39%
    17:00 +4°C° 0 mm 3 mps 479 mmHg 40%
    18:00 +3°C° 0 mm 3 mps 478 mmHg 42%
    19:00 +2°C° 0 mm 2 mps 477 mmHg 45%
    20:00 +1°C° 0 mm 2 mps 476 mmHg 47%
    21:00 -1°C° 0 mm 2 mps 476 mmHg 49%
    22:00 +1°C° 0 mm 1 mps 476 mmHg 51%
    23:00 0°C° 0 mm 1 mps 476 mmHg 53%

    28 May, Tuesday

    Time Temperature Precipitation Wind Pressure Humidity
    00:00 0°C° 0 mm 1 mps 475 mmHg 52%
    01:00 0°C° 0 mm 1 mps 475 mmHg 51%
    02:00 -1°C° 0 mm 1 mps 475 mmHg 50%
    03:00 -1°C° 0 mm 1 mps 474 mmHg 47%
    04:00 -1°C° 0 mm 1 mps 474 mmHg 45%
    05:00 -2°C° 0 mm 1 mps 474 mmHg 43%
    06:00 0°C° 0 mm 1 mps 475 mmHg 39%
    07:00 +1°C° 0 mm 2 mps 476 mmHg 35%
    08:00 +2°C° 0 mm 2 mps 477 mmHg 31%
    09:00 +4°C° 0 mm 2 mps 478 mmHg 29%
    10:00 +4°C° 0 mm 3 mps 479 mmHg 28%
    11:00 +5°C° 0 mm 3 mps 480 mmHg 27%
    12:00 +7°C° 0 mm 3 mps 480 mmHg 28%
    13:00 +7°C° 0 mm 3 mps 480 mmHg 29%
    14:00 +7°C° 0 mm 3 mps 480 mmHg 31%
    15:00 +7°C° 0 mm 3 mps 480 mmHg 32%
    16:00 +7°C° 0 mm 3 mps 480 mmHg 32%
    17:00 +7°C° 0 mm 3 mps 479 mmHg 33%
    18:00 +4°C° 0 mm 3 mps 479 mmHg 36%
    19:00 +4°C° 0 mm 2 mps 478 mmHg 38%
    20:00 +2°C° 0 mm 2 mps 477 mmHg 41%
    21:00 +2°C° 0 mm 2 mps 477 mmHg 42%
    22:00 +2°C° 0 mm 1 mps 477 mmHg 44%
    23:00 +2°C° 0 mm 1 mps 477 mmHg 45%

    29 May, Wednesday

    Time Temperature Precipitation Wind Pressure Humidity
    00:00 +1°C° 0 mm 1 mps 476 mmHg 44%
    01:00 +1°C° 0 mm 1 mps 476 mmHg 42%
    02:00 +1°C° 0 mm 1 mps 475 mmHg 41%
    03:00 0°C° 0 mm 1 mps 475 mmHg 38%
    04:00 0°C° 0 mm 1 mps 475 mmHg 36%
    05:00 0°C° 0 mm 1 mps 474 mmHg 34%
    06:00 +1°C° 0 mm 1 mps 476 mmHg 31%
    07:00 +3°C° 0 mm 1 mps 477 mmHg 28%
    08:00 +5°C° 0 mm 1 mps 478 mmHg 25%
    09:00 +6°C° 0 mm 1 mps 479 mmHg 25%
    10:00 +6°C° 0 mm 2 mps 479 mmHg 26%
    11:00 +8°C° 0 mm 2 mps 480 mmHg 26%
    12:00 +8°C° 0 mm 2 mps 480 mmHg 28%
    13:00 +10°C° 0 mm 1 mps 480 mmHg 29%
    14:00 +10°C° 0 mm 1 mps 480 mmHg 30%
    15:00 +9°C° 0 mm 2 mps 480 mmHg 28%
    16:00 +9°C° 0 mm 2 mps 480 mmHg 27%
    17:00 +8°C° 0 mm 2 mps 480 mmHg 26%
    18:00 +7°C° 0 mm 2 mps 479 mmHg 29%
    19:00 +6°C° 0 mm 2 mps 479 mmHg 32%
    20:00 +4°C° 0 mm 2 mps 478 mmHg 35%
    21:00 +5°C° 0 mm 1 mps 478 mmHg 35%
    22:00 +4°C° 0 mm 1 mps 478 mmHg 36%
    23:00 +4°C° 0 mm 1 mps 477 mmHg 36%
    Show more